Home > Weather > Kalamazoo > Past weeks

Flag for U.S.A. Weather for the Past 2 Weeks in Kalamazoo, Michigan, U.S.A.

Now
17 °F

Overcast.


Feels Like: 6 °F
Forecast: 10 / 22 °F
Wind: 9 mph from Southwest

Location: Kalamazoo / Battle Creek International Airport

Current Time: Feb 12, 2016 at 8:22:12 AM

Latest Report: Feb 12, 2016 at 7:53 AM


Visibility: 10 mi

Pressure: 30.11 "Hg

Humidity: 68%

Dew point: 8 °F

Location of KalamazooLocation

Historic Weather in Kalamazoo — Graph

°F

Kalamazoo Temperature Yesterday

Maximum temperature yesterday: 20 °F (at 1:53 PM)
Minimum temperature yesterday: 10 °F (at 11:53 PM)
Average temperature yesterday: 16 °F

High & Low Weather Summary for the Past Weeks

 TemperatureHumidityPressure
High49 °F (Jan 31, 2:53 PM)97% (Feb 3, 3:53 AM)30.37 "Hg (Feb 3, 3:53 AM)
Low9 °F (Feb 12, 1:53 AM)51% (Feb 7, 1:53 PM)29.46 "Hg (Feb 3, 4:03 AM)
Average30 °F75%29.92 "Hg
* Reported Jan 28 6:53 AM — Feb 12 6:53 AM, Kalamazoo, Weather by CustomWeather, © 2016

Note: Actual official high and low records may vary slightly from our data, if they occured in-between our weather recording intervals... More about our weather records

Advertising

Kalamazoo Weather History for the Previous 24 Hours

 ConditionsComfort  
Time TempWeatherWind HumidityBarometerVisibility
6:53 AM
Fri, Feb 12
16 °FOvercast.9 mph67%30.13 "Hg10 mi
5:53 AM16 °FOvercast.7 mph65%30.15 "Hg10 mi
4:53 AM15 °FOvercast.7 mph67%30.15 "Hg10 mi
3:53 AM13 °FMostly cloudy.10 mph70%30.17 "Hg10 mi
2:53 AM11 °FMostly cloudy.9 mph70%30.21 "Hg10 mi
1:53 AM9 °FClear.7 mph70%30.23 "Hg10 mi
12:53 AM10 °FClear.8 mph73%30.26 "Hg10 mi
11:53 PM
Thu, Feb 11
10 °FClear.8 mph73%30.28 "Hg10 mi
10:53 PM12 °FClear.7 mph70%30.29 "Hg10 mi
9:53 PM14 °FPassing clouds.3 mph71%30.30 "Hg10 mi
8:53 PM16 °FPassing clouds.5 mph67%30.30 "Hg10 mi
7:53 PM17 °FOvercast.7 mph64%30.30 "Hg10 mi
6:53 PM19 °FOvercast.7 mph68%30.30 "Hg10 mi
5:53 PM18 °FSunny.5 mph65%30.29 "Hg10 mi
4:53 PM20 °FLight snow. Mostly cloudy.12 mph65%30.28 "Hg8 mi
4:04 PM20 °FLight snow. Cloudy.12 mph68%30.23 "Hg1 mi
3:53 PM20 °FLight snow. Mostly cloudy.10 mph65%30.27 "Hg3 mi
2:53 PM20 °FLight snow. Mostly cloudy.9 mph68%30.28 "Hg3 mi
1:53 PM20 °FLight snow. More clouds than sun.7 mph57%30.28 "Hg6 mi
12:53 PM19 °FPartly sunny.7 mph54%30.28 "Hg10 mi
11:53 AM18 °FCloudy.6 mph62%30.29 "Hg10 mi
10:53 AM17 °FOvercast.6 mph64%30.29 "Hg10 mi
9:53 AM15 °FOvercast.3 mph70%30.26 "Hg10 mi
8:53 AM14 °FOvercast.5 mph73%30.25 "Hg9 mi
Weather by CustomWeather, © 2016

See weather overviewHow to use our weather pages